Regional Weather Roundup
Issued by NWS

Home | Current Version | Previous Version | Graphics & Text | Print | Product List | Glossary On
Versions: 1 2 3 4 5 6 7 8 9 10 11 12 13 14 15 16 17 18 19 20 21 22 23 24 25 26 27 28 29 30 31 32 33 34 35 36 37 38 39 40 41 42 43 44 45 46 47 48 49 50
000
ASUS43 KOAX 060210
RWRNE

WEATHER ROUNDUP FOR NEBRASKA
NATIONAL WEATHER SERVICE OMAHA NE
800 PM CST FRI FEB 05 2016

NOTES: SATELLITE DATA IS BEING USED TO AUGMENT CLOUD COVER ABOVE
       12000 FEET.
       "FAIR" INDICATES FEW OR NO CLOUDS BELOW 12,000 FEET WITH NO
       SIGNIFICANT WEATHER AND/OR OBSTRUCTIONS TO VISIBILITY.

  * THESE STATIONS DO NOT REPORT WEATHER SUCH AS RAIN...SNOW OR FOG.

NEZ001>004-019>022-054>056-060300-
NEBRASKA PANHANDLE

CITY           SKY/WX    TMP DP  RH WIND       PRES   REMARKS
SCOTTSBLUFF    CLEAR     24  14  65 W7        30.27S WCI  16
ALLIANCE       CLEAR     15  11  83 W8        30.23S WCI   4
CHADRON        CLEAR     28  19  69 W13       30.22F WCI  17
KIMBALL        CLEAR     25  14  63 NW14      30.25F WCI  13
SIDNEY         CLEAR     23  14  68 NW15      30.27R WCI  10
$$

NEZ057>060-069>072-079>082-060300-
SOUTHWEST NEBRASKA

CITY           SKY/WX    TMP DP  RH WIND       PRES   REMARKS
NORTH PLATTE   CLEAR     24  18  77 NW6       30.24F WCI  17
IMPERIAL       CLEAR     26  18  71 NW14      30.27R WCI  14
LEXINGTON      CLEAR     28  22  81 NW8       30.25S WCI  19
MCCOOK         CLEAR     28  22  78 W12       30.27S WCI  18
OGALLALA       CLEAR     22  16  78 W12       30.26R WCI  11
$$

NEZ005>010-023>029-035>040-094-060300-
NORTH CENTRAL NEBRASKA

CITY           SKY/WX    TMP DP  RH WIND       PRES   REMARKS
VALENTINE      CLEAR     23  20  88 SW8       30.22S WCI  14
AINSWORTH      CLEAR     24  22  91 S6        30.22F WCI  17
BROKEN BOW     MOCLDY    31  24  75 N10       30.24R WCI  22
O`NEILL        PTCLDY    33  30  88 NW6       30.23F WCI  28
ORD            CLOUDY    34  27  75 NW12      30.24R WCI  25
THEDFORD       CLEAR     26  23  86 CALM      30.24R
$$

NEZ041-046>049-061>064-073>077-083>087-060300-
SOUTH CENTRAL NEBRASKA

CITY           SKY/WX    TMP DP  RH WIND       PRES   REMARKS
GRAND ISLAND   MOCLDY    33  29  85 NW8       30.24S WCI  26
AURORA         MOCLDY    33  31  91 NW10      30.24S WCI  25
HASTINGS       CLOUDY    32  28  85 N6        30.23S WCI  26
HEBRON         PTCLDY    27  24  89 W3        30.25S
HOLDREGE       CLOUDY    33  27  78 N6        30.24S WCI  28
KEARNEY *      CLOUDY    34 -15  12 N6        30.25R WCI  29
YORK           CLOUDY    32  32 100 NW8       30.24R WCI  25
$$

NEZ011>018-030>034-042>045-060300-
NORTHEAST NEBRASKA

CITY           SKY/WX    TMP DP  RH WIND       PRES   REMARKS
NORFOLK        CLOUDY    35  31  85 NW15      30.21R WCI  25
ALBION         CLOUDY    35  30  83 NW13      30.23R WCI  26
BLAIR          LGT SNOW  31  29  94 S6        30.22S WCI  25
COLUMBUS *     CLOUDY    34  25  69 NW9       30.23S WCI  26
FREMONT        CLOUDY    31  30  94 CALM      30.22S
TEKAMAH        CLOUDY    28  26  92 SE8       30.23S FOG     WCI  20
WAYNE          CLOUDY    33  30  90 NW9       30.22R WCI  25
$$

NEZ050>053-065>068-078-088>093-060300-
SOUTHEAST NEBRASKA

CITY           SKY/WX    TMP DP  RH WIND       PRES   REMARKS
LINCOLN        CLOUDY    31  29  92 S5        30.25F WCI  26
OMAHA EPPLEY   CLOUDY    30  28  92 S8        30.24F FOG     WCI  22
BEATRICE       CLOUDY    33  28  83 W5        30.24F WCI  29
FALLS CITY     CLOUDY    35  25  66 S6        30.26S WCI  30
NEBRASKA CITY  CLOUDY    28  28 100 S5        30.25F FOG     WCI  22
PLATTSMOUTH    CLOUDY    30  29  96 S6        30.24S FOG     WCI  24
$$

NEZ044-045-051>053-067-060300-
OMAHA AREA

CITY           SKY/WX    TMP DP  RH WIND       PRES   REMARKS
OMAHA EPPLEY   CLOUDY    30  28  92 S8        30.24F FOG     WCI  22
BLAIR          LGT SNOW  31  29  94 S6        30.22S WCI  25
FREMONT        CLOUDY    31  30  94 CALM      30.22S
MILLARD        LGT SNOW  31  28  90 CALM      30.24S
OFFUTT AFB     CLOUDY    28  28  99 SE2       30.24S FOG
PLATTSMOUTH    CLOUDY    30  29  96 S6        30.24S FOG     WCI  24
WAHOO          CLOUDY    31  30  94 SW5       30.23S WCI  26
$$



USA.gov is the U.S. government's official web portal to all federal, state and local government web resources and services.